Vertical_Velocity
2 -1 -1 1 -0 1 -0 0 0 -0 -1 -1 -1 0 1 -0 0 0 -1 1 0 -1 -0 -1 -2 -2 -0 -1 0 1 -1 1
-1 -0 -0 1 1 0 -0 -0 -0 1 -1 -0 -1 -1 -1 -2 -1 -1 1 0 -0 -1 -2 -1 0 1 -3 1 1 -1 -1 1
-0 2 2 1 2 2 -1 -0 0 0 0 -1 -0 -0 -1 -2 -1 0 -1 1 -0 0 -1 -1 -1 -0 -2 -3 -2 -1 1 2
-1 -2 1 -1 0 0 -1 -0 0 0 -0 -0 -0 0 -1 -1 -2 -1 1 0 0 0 -0 0 2 -0 -2 -1 -1 -2 0 0
-2 -1 1 -2 -1 -1 -1 0 -0 -1 -1 0 -0 -1 -1 -1 -2 -1 1 -1 0 0 1 0 1 -0 1 1 1 -0 -3 -3
-2 0 -1 -1 2 2 1 -0 -1 -1 -0 -1 -0 -0 0 -1 -2 -0 0 -0 -0 -0 1 0 2 0 0 1 1 1 1 -1
-2 -0 1 1 -1 -1 1 -0 -0 0 1 0 -1 0 1 -0 0 -0 0 -2 -2 -1 -1 -1 -0 1 2 -0 -0 -1 -1 1
-5 -1 0 1 3 -0 -1 -0 1 1 1 2 2 -0 -2 -1 -1 0 -0 -1 -3 -2 -2 -1 -0 0 -0 1 -1 -1 -2 -1
-2 -2 -3 0 1 1 -0 -1 0 0 1 1 -0 -0 -0 -1 -1 -0 -1 -1 -1 -0 0 0 0 1 1 -0 1 1 0 -0
-4 -1 -3 -1 -1 -1 1 0 -1 -2 -2 -0 -0 -0 -0 -0 -1 -0 0 -0 -0 0 -2 -2 0 3 1 -1 -1 -1 -2 0
-4 -3 -1 -4 -2 -3 -2 -1 -1 -2 -1 -0 0 0 1 1 1 1 2 2 1 1 2 0 2 2 5 2 -3 -3 -2 -3
-3 -3 -2 -3 -2 -3 -4 -3 -2 -1 -1 1 1 1 1 1 0 1 0 0 0 -1 -1 -1 2 1 1 2 -0 2 2 3
1 -3 -3 -0 -1 -1 -1 -0 -1 -0 -0 1 1 1 -0 -1 1 0 -1 -1 -0 -1 -2 -3 -1 2 6 1 -4 2 -5 -4
3 0 -3 -0 -0 -1 -1 -2 -2 -2 -1 -0 -1 -0 0 0 -0 -1 -1 0 -0 -1 -0 -0 -2 -2 3 3 13 -6 -5 -4
1 1 -2 1 1 -0 -1 -0 -2 -1 -1 -1 -0 -1 -1 -0 -0 -1 -1 -2 -2 -3 -1 1 -3 -8 -4 -2 -1 6 7 -1
-1 1 1 0 0 1 0 0 -0 -2 -2 -0 1 1 2 3 1 1 -1 -2 -1 -0 -2 -5 -4 2 -11 -6 1 -2 -7 10
-2 1 2 1 1 1 -1 0 -0 0 -0 -0 -0 -0 -1 -1 -3 -4 -4 -2 -3 -3 -1 -0 1 -1 2 4 -10 -11 -7 -9
-0 1 -1 2 1 1 1 0 -0 -1 -1 -0 -1 0 0 -1 -1 -1 -0 -0 1 0 1 1 -5 -1 -3 -2 -2 0 -5 -6
-3 -6 -3 -0 0 -0 -0 0 0 -1 -0 -0 0 -0 -0 -2 -4 -2 -3 -2 -1 -3 -1 -2 -5 -6 -8 -10 -10 -5 -2 1
-2 0 0 -1 -2 -2 -0 0 -2 -0 -2 -1 -2 -2 -2 -2 -1 -3 -2 -1 -1 -2 -5 -7 -4 -7 -7 -4 -4 -11 -3 -4
Height
5861 5862 5862 5861 5861 5861 5860 5860 5860 5860 5859 5858 5857 5857 5857 5856 5856 5856 5855 5855 5854 5853 5852 5852 5852 5852 5853 5854 5855 5854 5854 5853
5859 5859 5858 5858 5858 5858 5857 5856 5855 5855 5854 5853 5853 5853 5852 5852 5852 5852 5851 5851 5850 5849 5848 5848 5848 5848 5848 5849 5850 5850 5849 5849
5856 5855 5854 5854 5854 5853 5853 5852 5851 5850 5849 5849 5848 5848 5848 5848 5848 5848 5847 5847 5847 5846 5845 5844 5844 5844 5844 5844 5844 5845 5845 5844
5850 5850 5850 5850 5850 5849 5848 5847 5846 5845 5845 5844 5844 5844 5844 5844 5844 5843 5843 5843 5843 5842 5841 5840 5839 5838 5838 5838 5838 5838 5838 5838
5845 5844 5843 5844 5843 5843 5842 5841 5840 5839 5839 5838 5838 5838 5838 5838 5838 5838 5837 5837 5837 5837 5836 5835 5834 5833 5832 5832 5831 5831 5831 5831
5839 5838 5838 5838 5837 5836 5835 5834 5833 5832 5832 5831 5830 5830 5831 5832 5832 5832 5831 5831 5830 5831 5830 5829 5828 5827 5826 5825 5824 5824 5824 5823
5834 5832 5831 5831 5830 5829 5827 5826 5826 5825 5825 5824 5823 5823 5823 5824 5824 5824 5824 5824 5824 5824 5823 5823 5821 5821 5819 5818 5816 5816 5816 5815
5826 5825 5824 5823 5822 5821 5820 5819 5818 5818 5818 5817 5816 5816 5816 5816 5817 5816 5816 5816 5816 5816 5815 5815 5814 5813 5812 5811 5810 5809 5808 5807
5818 5817 5816 5814 5813 5812 5812 5811 5811 5810 5810 5810 5810 5810 5809 5809 5808 5808 5808 5808 5808 5807 5807 5806 5806 5805 5804 5802 5801 5800 5799 5798
5808 5807 5806 5805 5804 5803 5803 5803 5803 5803 5803 5802 5802 5802 5802 5801 5801 5800 5800 5800 5799 5799 5798 5798 5798 5796 5795 5793 5792 5791 5790 5789
5797 5797 5798 5797 5796 5796 5795 5795 5795 5795 5794 5794 5794 5794 5793 5793 5793 5793 5792 5791 5791 5791 5790 5789 5788 5786 5785 5783 5781 5780 5779 5778
5789 5788 5788 5788 5787 5787 5787 5787 5787 5786 5786 5786 5786 5785 5785 5785 5784 5783 5783 5782 5782 5781 5780 5779 5778 5775 5773 5770 5768 5767 5765 5763
5780 5778 5779 5779 5778 5778 5778 5778 5778 5778 5778 5778 5777 5777 5776 5775 5775 5774 5773 5772 5771 5770 5769 5768 5766 5765 5763 5759 5755 5753 5750 5747
5772 5770 5771 5771 5770 5770 5770 5770 5769 5769 5769 5768 5768 5767 5766 5766 5765 5763 5762 5761 5760 5759 5757 5755 5753 5751 5750 5747 5743 5737 5733 5730
5763 5762 5762 5762 5761 5761 5761 5761 5761 5760 5759 5759 5758 5757 5757 5756 5755 5753 5752 5750 5748 5746 5744 5742 5739 5735 5734 5730 5726 5723 5716 5711
5755 5755 5753 5752 5753 5753 5752 5751 5751 5750 5749 5748 5748 5747 5745 5744 5742 5741 5740 5738 5735 5733 5731 5728 5725 5720 5714 5710 5707 5703 5700 5699
5747 5745 5743 5743 5743 5743 5743 5741 5740 5739 5739 5738 5737 5735 5734 5732 5732 5730 5728 5725 5723 5719 5716 5712 5708 5704 5700 5692 5686 5681 5678 5675
5737 5736 5734 5734 5733 5732 5732 5730 5729 5728 5727 5727 5726 5724 5723 5722 5720 5717 5715 5712 5708 5704 5700 5695 5692 5688 5683 5677 5670 5662 5652 5644
5726 5725 5724 5723 5722 5721 5720 5719 5718 5717 5716 5715 5713 5711 5709 5707 5705 5702 5700 5696 5693 5689 5686 5682 5677 5671 5665 5658 5650 5641 5631 5620
5712 5712 5712 5711 5711 5710 5709 5708 5707 5706 5704 5702 5700 5698 5696 5693 5691 5689 5686 5683 5680 5676 5672 5667 5660 5654 5646 5637 5625 5616 5610 5605